N4NVD-13 Weather Reports


Display with metric or nautical units.
time (UTC)temp
F
wind
direction
speed
MPH
gust
MPH
rain 1hr
in
rain 24hr
in
rain mn
in
humidity
%
barometer
mb
20260831163121 93 110 2.0 5.0 0.00 0.00 0.00 61 1016.7
20260831162620 90 208 0.0 6.0 0.00 0.00 0.00 64 1016.7
20260831162118 92 229 5.0 9.0 0.00 0.00 0.00 62 1016.8
20260831161614 92 41 0.0 3.0 0.00 0.00 0.00 61 1016.9
20260831161111 91 150 0.0 5.0 0.00 0.00 0.00 66 1017.0
20260831160609 92 297 0.0 2.0 0.00 0.00 0.00 70 1016.7
20260831160105 90 229 3.0 6.0 0.00 0.00 0.00 71 1016.6
20260831155559 89 234 4.0 9.0 0.00 0.00 0.00 72 1016.7
20260831155055 90 211 5.0 6.0 0.00 0.00 0.00 72 1016.8
20260831154551 90 277 0.0 6.0 0.00 0.00 0.00 74 1016.6
20260831154050 90 221 2.0 4.0 0.00 0.00 0.00 72 1016.5
20260831153544 88 206 4.0 8.0 0.00 0.00 0.00 76 1016.7
20260831153041 89 255 3.0 4.0 0.00 0.00 0.00 75 1016.6
20260831152536 88 238 5.0 5.0 0.00 0.00 0.00 77 1016.6
20260831152032 89 208 5.0 7.0 0.00 0.00 0.00 78 1016.4
20260831151526 88 203 0.0 5.0 0.00 0.00 0.00 79 1016.6
20260831151026 87 201 3.0 5.0 0.00 0.00 0.00 81 1017.0
20260831150521 87 157 3.0 5.0 0.00 0.00 0.00 82 1016.7
20260831150017 88 206 4.0 6.0 0.00 0.00 0.00 81 1016.6
20260831145511 87 165 0.0 4.0 0.00 0.00 0.00 83 1016.7
20260831145007 85 256 4.0 8.0 0.00 0.00 0.00 85 1016.6
20260831144503 86 180 1.0 6.0 0.00 0.00 0.00 85 1016.6
20260831143957 86 229 3.0 5.0 0.00 0.00 0.00 85 1016.6
20260831143451 86 160 3.0 5.0 0.00 0.00 0.00 85 1016.4
20260831142947 85 270 0.0 5.0 0.00 0.00 0.00 87 1016.4
20260831142444 85 213 2.0 3.0 0.00 0.00 0.00 87 1016.4
20260831141938 84 160 4.0 5.0 0.00 0.00 0.00 88 1016.3
20260831141432 83 195 2.0 4.0 0.00 0.00 0.00 89 1016.5
20260831140927 83 212 3.0 5.0 0.00 0.00 0.00 90 1016.2
20260831140421 83 254 0.0 3.0 0.00 0.00 0.00 91 1016.5
20260831135921 83 212 0.0 3.0 0.00 0.00 0.00 91 1016.3
20260831135420 84 173 0.0 1.0 0.00 0.00 0.00 89 1016.3
20260831134915 83 270 2.0 3.0 0.00 0.00 0.00 89 1016.5
20260831134412 83 0 0.0 2.0 0.00 0.00 0.00 91 1016.3
20260831133911 82 82 0.0 3.0 0.00 0.00 0.00 92 1016.3
20260831133406 80 12 0.0 3.0 0.00 0.00 0.00 94 1016.2
20260831132901 80 30 2.0 3.0 0.00 0.00 0.00 95 1016.1
20260831132356 79 73 2.0 3.0 0.00 0.00 0.00 96 1016.1
20260831131856 79 32 2.0 3.0 0.00 0.00 0.00 97 1016.0
20260831131351 79 54 1.0 2.0 0.00 0.00 0.00 99 1016.0
20260831130846 78 12 0.0 0.0 0.00 0.00 0.00 99 1015.8
20260831130342 77 78 2.0 2.0 0.00 0.00 0.00 99 1016.0
20260831125841 76 270 0.0 0.0 0.00 0.00 0.00 99 1015.9
20260831125336 76 270 0.0 0.0 0.00 0.00 0.00 99 1015.6
20260831124831 74 270 0.0 0.0 0.00 0.00 0.00 99 1015.7
20260831124328 73 270 0.0 0.0 0.00 0.00 0.00 99 1015.5
20260831123827 73 270 0.0 0.0 0.00 0.00 0.00 99 1015.7
20260831123326 72 270 0.0 0.0 0.00 0.00 0.00 99 1015.6
20260831122821 71 286 0.0 1.0 0.00 0.00 0.00 99 1015.5
20260831122316 71 81 0.0 0.0 0.00 0.00 0.00 99 1015.6
20260831121811 71 81 0.0 0.0 0.00 0.00 0.00 99 1015.6
20260831121307 71 81 0.0 0.0 0.00 0.00 0.00 99 1015.5
20260831120802 71 81 0.0 0.0 0.00 0.00 0.00 99 1015.4
20260831120256 71 81 0.0 0.0 0.00 0.00 0.00 99 1015.6
20260831115752 71 81 0.0 0.0 0.00 0.00 0.00 99 1015.3
20260831115248 71 81 0.0 0.0 0.00 0.00 0.00 99 1015.3
20260831114747 71 81 0.0 0.0 0.00 0.00 0.00 99 1015.5
20260831114241 71 81 0.0 0.0 0.00 0.00 0.00 99 1015.7
20260831113736 72 279 0.0 1.0 0.00 0.00 0.00 99 1015.3
20260831113231 72 270 0.0 0.0 0.00 0.00 0.00 99 1015.4
20260831112730 72 300 0.0 0.0 0.00 0.00 0.00 99 1015.4
20260831112226 72 294 1.0 1.0 0.00 0.00 0.00 99 1015.4
20260831111721 72 270 0.0 0.0 0.00 0.00 0.00 99 1015.3
20260831111217 72 270 0.0 0.0 0.00 0.00 0.00 99 1015.3
20260831110713 72 90 0.0 0.0 0.00 0.00 0.00 99 1015.2
20260831110208 72 90 0.0 0.0 0.00 0.00 0.00 99 1015.4
20260831105706 72 90 0.0 0.0 0.00 0.00 0.00 99 1015.1
20260831105203 73 90 0.0 0.0 0.00 0.00 0.00 99 1015.3
20260831104657 73 8 0.0 0.0 0.00 0.00 0.00 99 1015.1
20260831104154 73 81 0.0 1.0 0.00 0.00 0.00 99 1015.2
20260831103654 73 308 2.0 2.0 0.00 0.00 0.00 99 1015.1
20260831103149 72 300 0.0 0.0 0.00 0.00 0.00 99 1014.9
20260831102649 72 286 0.0 1.0 0.00 0.00 0.00 99 1015.0
20260831102144 72 81 0.0 0.0 0.00 0.00 0.00 99 1015.1
20260831101639 73 81 0.0 0.0 0.00 0.00 0.00 99 1015.0
20260831101135 74 83 0.0 2.0 0.00 0.00 0.00 99 1015.2
20260831100631 73 74 0.0 1.0 0.00 0.00 0.00 99 1015.0
20260831100127 73 81 0.0 0.0 0.00 0.00 0.00 99 1015.1
20260831095625 73 81 0.0 0.0 0.00 0.00 0.00 99 1014.9
20260831095120 73 81 0.0 0.0 0.00 0.00 0.00 99 1014.8
20260831094615 74 81 0.0 0.0 0.00 0.00 0.00 99 1015.1
20260831094112 73 66 0.0 0.0 0.00 0.00 0.00 99 1014.9
20260831093607 74 66 0.0 0.0 0.00 0.00 0.00 99 1014.9
20260831093103 74 66 0.0 0.0 0.00 0.00 0.00 99 1015.1
20260831092558 74 105 0.0 2.0 0.00 0.00 0.00 99 1014.8
20260831092054 73 23 0.0 0.0 0.00 0.00 0.00 99 1014.9
20260831091553 73 23 0.0 0.0 0.00 0.00 0.00 99 1014.9
20260831091049 73 23 0.0 0.0 0.00 0.00 0.00 99 1014.9
20260831090544 73 23 0.0 0.0 0.00 0.00 0.00 99 1015.2
20260831090040 73 23 0.0 0.0 0.00 0.00 0.00 99 1015.2
20260831085535 73 23 0.0 0.0 0.00 0.00 0.00 99 1014.9
20260831085031 73 23 0.0 0.0 0.00 0.00 0.00 99 1015.1
20260831084527 74 23 0.0 0.0 0.00 0.00 0.00 99 1014.8
20260831084023 73 81 0.0 0.0 0.00 0.00 0.00 99 1014.9
20260831083518 74 81 0.0 0.0 0.00 0.00 0.00 99 1014.9
20260831083018 74 81 0.0 0.0 0.00 0.00 0.00 99 1015.1
20260831082512 75 81 0.0 0.0 0.00 0.00 0.00 99 1015.2
20260831082007 74 81 0.0 0.0 0.00 0.00 0.00 98 1015.2
20260831081503 75 81 0.0 0.0 0.00 0.00 0.00 98 1015.1
20260831080959 75 81 0.0 0.0 0.00 0.00 0.00 98 1015.2
20260831080459 75 81 0.0 0.0 0.00 0.00 0.00 98 1015.1
20260831075954 75 81 0.0 0.0 0.00 0.00 0.00 98 1015.0
20260831075449 75 90 0.0 0.0 0.00 0.00 0.00 98 1015.3
20260831074944 75 90 0.0 0.0 0.00 0.00 0.00 97 1015.2
20260831074438 75 12 0.0 1.0 0.00 0.00 0.00 97 1015.3
20260831073932 75 206 0.0 0.0 0.00 0.00 0.00 97 1015.2
20260831073427 75 206 0.0 0.0 0.00 0.00 0.00 96 1015.3
20260831072921 75 206 0.0 0.0 0.00 0.00 0.00 96 1015.0
20260831072417 75 206 0.0 0.0 0.00 0.00 0.00 95 1015.3
20260831071914 75 206 0.0 0.0 0.00 0.00 0.00 94 1015.2
20260831071412 76 206 0.0 0.0 0.00 0.00 0.00 94 1015.2
20260831070907 76 206 0.0 0.0 0.00 0.00 0.00 92 1015.3
20260831070406 77 206 0.0 0.0 0.00 0.00 0.00 92 1015.4
20260831065906 77 206 0.0 0.0 0.00 0.00 0.00 92 1015.5
20260831065404 78 206 0.0 0.0 0.00 0.00 0.00 91 1015.3
20260831064859 78 206 0.0 0.0 0.00 0.00 0.00 90 1015.5
20260831064354 79 206 0.0 0.0 0.00 0.00 0.00 90 1015.4
20260831063850 79 206 0.0 0.0 0.00 0.00 0.00 90 1015.4
20260831063345 79 206 0.0 0.0 0.00 0.00 0.00 89 1015.4
20260831062844 79 209 0.0 2.0 0.00 0.00 0.00 88 1015.3
20260831062339 80 157 0.0 4.0 0.00 0.00 0.00 88 1015.3
20260831061838 80 106 1.0 2.0 0.00 0.00 0.00 88 1015.4
20260831061332 80 160 0.0 4.0 0.00 0.00 0.00 87 1015.5
20260831060828 80 159 2.0 2.0 0.00 0.00 0.00 87 1015.3
20260831060327 80 154 1.0 3.0 0.00 0.00 0.00 86 1015.4
20260831055822 80 151 2.0 2.0 0.00 0.00 0.00 86 1015.3
20260831055317 81 206 0.0 3.0 0.00 0.00 0.00 85 1015.1
20260831054812 81 225 3.0 4.0 0.00 0.00 0.00 85 1015.4
20260831054307 81 188 0.0 1.0 0.00 0.00 0.00 84 1015.2
20260831053806 81 157 2.0 4.0 0.00 0.00 0.00 83 1015.2
20260831053259 82 206 2.0 5.0 0.00 0.00 0.00 83 1015.2
20260831052754 82 145 0.0 2.0 0.00 0.00 0.00 82 1014.8
20260831052253 82 151 0.0 3.0 0.00 0.00 0.00 81 1015.1
20260831051751 82 228 4.0 6.0 0.00 0.00 0.00 81 1014.8
20260831051250 82 184 2.0 5.0 0.00 0.00 0.00 80 1015.0
20260831050745 82 233 0.0 4.0 0.00 0.00 0.00 80 1015.1
20260831050244 82 264 2.0 3.0 0.00 0.00 0.00 79 1015.0
20260831045738 83 208 3.0 3.0 0.00 0.00 0.00 79 1015.0
20260831045233 83 254 1.0 2.0 0.00 0.00 0.00 78 1014.9
20260831044728 83 157 0.0 6.0 0.00 0.00 0.00 77 1014.8
20260831044222 84 154 1.0 5.0 0.00 0.00 0.00 77 1014.8
20260831043718 84 225 0.0 5.0 0.00 0.00 0.00 77 1014.8
20260831043208 84 150 2.0 6.0 0.00 0.00 0.00 76 1014.7
20260831042707 84 216 2.0 5.0 0.00 0.00 0.00 75 1014.7
20260831042202 84 157 3.0 5.0 0.00 0.00 0.00 75 1014.6
20260831041656 84 211 3.0 6.0 0.00 0.00 0.00 75 1014.8
20260831041151 85 124 3.0 5.0 0.00 0.00 0.00 74 1014.7
20260831040646 84 249 1.0 4.0 0.00 0.00 0.00 74 1014.6
20260831040145 85 176 2.0 4.0 0.00 0.00 0.00 74 1014.6
20260831035643 85 149 4.0 7.0 0.00 0.00 0.00 74 1014.6
20260831035138 85 151 0.0 3.0 0.00 0.00 0.00 74 1014.5
20260831034637 85 148 0.0 5.0 0.00 0.00 0.00 73 1014.4
20260831034133 85 147 0.0 4.0 0.00 0.00 0.00 73 1014.5
20260831033628 85 132 0.0 3.0 0.00 0.00 0.00 73 1014.4
20260831033123 85 157 1.0 4.0 0.00 0.00 0.00 73 1014.4
20260831032623 85 254 0.0 3.0 0.00 0.00 0.00 72 1014.2
20260831032118 85 165 2.0 3.0 0.00 0.00 0.00 72 1014.2
20260831031613 85 233 2.0 3.0 0.00 0.00 0.00 71 1014.0
20260831031112 85 236 2.0 3.0 0.00 0.00 0.00 71 1013.9
20260831030611 85 151 0.0 2.0 0.00 0.00 0.00 71 1013.9
20260831030110 86 204 0.0 3.0 0.00 0.00 0.00 70 1014.0
20260831025609 86 120 1.0 3.0 0.00 0.00 0.00 69 1013.8
20260831025104 86 209 0.0 2.0 0.00 0.00 0.00 69 1013.8
20260831024600 86 151 0.0 5.0 0.00 0.00 0.00 68 1013.5
20260831024058 86 159 2.0 2.0 0.00 0.00 0.00 68 1013.6
20260831023551 87 140 0.0 3.0 0.00 0.00 0.00 67 1013.4
20260831023051 87 154 0.0 3.0 0.00 0.00 0.00 67 1013.5
20260831022551 87 154 0.0 0.0 0.00 0.00 0.00 66 1013.3
20260831022041 87 168 1.0 4.0 0.00 0.00 0.00 65 1013.2
20260831021539 87 148 2.0 3.0 0.00 0.00 0.00 64 1013.2
20260831021036 87 195 2.0 3.0 0.00 0.00 0.00 63 1013.1
20260831020531 88 232 0.0 3.0 0.00 0.00 0.00 62 1013.1
20260831020026 88 154 0.0 3.0 0.00 0.00 0.00 61 1012.9
20260831015521 88 145 1.0 5.0 0.00 0.00 0.00 60 1012.9
20260831015016 88 144 0.0 3.0 0.00 0.00 0.00 60 1012.7
20260831014510 89 157 0.0 4.0 0.00 0.00 0.00 59 1012.5
20260831014007 89 90 2.0 4.0 0.00 0.00 0.00 58 1012.6
20260831013502 89 124 2.0 6.0 0.00 0.00 0.00 58 1012.9
20260831012955 89 111 0.0 3.0 0.00 0.00 0.00 57 1012.6
20260831012450 89 126 0.0 0.0 0.00 0.00 0.00 57 1012.6
20260831011944 90 165 0.0 1.0 0.00 0.00 0.00 56 1012.5
20260831011439 90 185 0.0 2.0 0.00 0.00 0.00 56 1012.6
20260831010936 91 154 1.0 4.0 0.00 0.00 0.00 55 1012.6
20260831010436 91 158 0.0 3.0 0.00 0.00 0.00 55 1012.3
20260831005931 91 134 4.0 4.0 0.00 0.00 0.00 55 1012.3
20260831005427 92 86 0.0 4.0 0.00 0.00 0.00 54 1012.4
20260831004926 92 165 3.0 3.0 0.00 0.00 0.00 53 1012.4
20260831004423 93 148 0.0 4.0 0.00 0.00 0.00 53 1012.2
20260831003918 93 151 0.0 4.0 0.00 0.00 0.00 52 1012.3
20260831003413 94 180 1.0 5.0 0.00 0.00 0.00 51 1012.4
20260831002908 94 215 0.0 4.0 0.00 0.00 0.00 51 1012.0
20260831002407 94 220 2.0 4.0 0.00 0.00 0.00 50 1012.0
20260831001903 95 75 3.0 4.0 0.00 0.00 0.00 49 1012.3
20260831001357 96 139 2.0 4.0 0.00 0.00 0.00 48 1012.2
20260831000855 96 143 2.0 7.0 0.00 0.00 0.00 48 1012.1
20260831000350 96 99 2.0 4.0 0.00 0.00 0.00 46 1012.2
20260830235848 96 79 2.0 3.0 0.00 0.00 0.00 46 1012.3
20260830235343 97 203 2.0 5.0 0.00 0.00 0.00 45 1012.2
20260830234839 97 246 0.0 4.0 0.00 0.00 0.00 45 1012.2
20260830234334 97 174 3.0 5.0 0.00 0.00 0.00 45 1012.4
20260830233830 97 147 3.0 6.0 0.00 0.00 0.00 45 1012.3
20260830233325 98 133 3.0 5.0 0.00 0.00 0.00 44 1012.4
20260830232821 98 150 4.0 5.0 0.00 0.00 0.00 44 1012.3
20260830232316 98 85 2.0 6.0 0.00 0.00 0.00 44 1012.2
20260830231813 98 180 2.0 8.0 0.00 0.00 0.00 44 1012.1
20260830231313 98 177 2.0 5.0 0.00 0.00 0.00 43 1012.1
20260830230807 98 169 3.0 5.0 0.00 0.00 0.00 44 1012.2
20260830230303 98 159 3.0 4.0 0.00 0.00 0.00 43 1012.3
20260830225802 99 153 6.0 6.0 0.00 0.00 0.00 43 1012.3
20260830225257 99 166 1.0 6.0 0.00 0.00 0.00 44 1012.4
20260830224756 99 117 0.0 5.0 0.00 0.00 0.00 43 1012.3
20260830224251 99 168 2.0 5.0 0.00 0.00 0.00 43 1012.3
20260830223748 99 168 2.0 6.0 0.00 0.00 0.00 42 1012.4
20260830223244 99 216 2.0 9.0 0.00 0.00 0.00 43 1012.5
20260830222738 98 90 1.0 5.0 0.00 0.00 0.00 43 1012.2
20260830222233 98 77 1.0 8.0 0.00 0.00 0.00 42 1012.4
20260830221729 100 70 4.0 6.0 0.00 0.00 0.00 43 1012.5
20260830221226 98 109 2.0 6.0 0.00 0.00 0.00 45 1012.1
20260830220721 99 83 1.0 3.0 0.00 0.00 0.00 43 1012.4
20260830220220 99 151 0.0 9.0 0.00 0.00 0.00 44 1012.5
20260830215719 99 229 3.0 4.0 0.00 0.00 0.00 42 1012.9
20260830215213 98 66 6.0 6.0 0.00 0.00 0.00 43 1012.7
20260830214708 98 129 3.0 9.0 0.00 0.00 0.00 44 1012.6
20260830214203 99 84 8.0 8.0 0.00 0.00 0.00 43 1013.0
20260830213702 100 202 2.0 5.0 0.00 0.00 0.00 44 1013.0
20260830213157 99 225 3.0 5.0 0.00 0.00 0.00 43 1012.7
20260830212653 99 201 5.0 11.0 0.00 0.00 0.00 42 1012.7
20260830212149 100 183 3.0 5.0 0.00 0.00 0.00 42 1012.9
20260830211648 99 231 8.0 11.0 0.00 0.00 0.00 43 1013.0
20260830211147 100 158 6.0 8.0 0.00 0.00 0.00 43 1013.0
20260830210643 99 115 3.0 6.0 0.00 0.00 0.00 45 1013.0
20260830210143 99 246 0.0 3.0 0.00 0.00 0.00 44 1013.1
20260830205640 100 182 3.0 6.0 0.00 0.00 0.00 43 1013.1
20260830205135 99 141 3.0 5.0 0.00 0.00 0.00 43 1013.4
20260830204635 99 227 4.0 7.0 0.00 0.00 0.00 44 1013.5
20260830204134 99 133 0.0 7.0 0.00 0.00 0.00 45 1013.5
20260830203631 98 228 6.0 6.0 0.00 0.00 0.00 45 1013.8
20260830203130 98 163 4.0 5.0 0.00 0.00 0.00 45 1013.8
20260830202625 98 180 0.0 9.0 0.00 0.00 0.00 45 1013.8
20260830202120 98 197 2.0 9.0 0.00 0.00 0.00 45 1013.9
20260830201620 99 151 2.0 6.0 0.00 0.00 0.00 44 1014.0
20260830201115 98 95 4.0 6.0 0.00 0.00 0.00 45 1014.1
20260830200611 99 159 8.0 8.0 0.00 0.00 0.00 44 1014.1
20260830200110 98 198 3.0 6.0 0.00 0.00 0.00 46 1014.4
20260830195605 99 180 0.0 5.0 0.00 0.00 0.00 44 1014.2
20260830195103 98 216 4.0 8.0 0.00 0.00 0.00 46 1014.2
20260830194602 98 105 1.0 7.0 0.00 0.00 0.00 45 1014.3
20260830194057 98 126 2.0 6.0 0.00 0.00 0.00 47 1014.5
20260830193556 98 130 4.0 7.0 0.00 0.00 0.00 46 1014.4
20260830193051 98 158 8.0 8.0 0.00 0.00 0.00 47 1014.5
20260830192547 96 69 3.0 6.0 0.00 0.00 0.00 49 1014.8
20260830192042 98 103 3.0 6.0 0.00 0.00 0.00 48 1014.9
20260830191537 97 180 2.0 7.0 0.00 0.00 0.00 47 1014.7
20260830191032 97 199 4.0 11.0 0.00 0.00 0.00 49 1014.9
20260830190527 95 90 0.0 4.0 0.00 0.00 0.00 52 1015.0
20260830190022 95 206 2.0 7.0 0.00 0.00 0.00 52 1015.2
20260830185516 95 225 9.0 10.0 0.00 0.00 0.00 52 1015.4
20260830185012 97 239 3.0 3.0 0.00 0.00 0.00 50 1015.3
20260830184510 97 177 3.0 9.0 0.00 0.00 0.00 50 1015.3
20260830183959 95 21 2.0 7.0 0.00 0.00 0.00 53 1015.3
20260830183454 97 157 1.0 6.0 0.00 0.00 0.00 51 1015.6
20260830182949 95 90 1.0 7.0 0.00 0.00 0.00 54 1015.6
20260830182444 95 139 4.0 6.0 0.00 0.00 0.00 55 1015.7
20260830181941 95 203 1.0 9.0 0.00 0.00 0.00 53 1015.7
20260830181437 93 159 3.0 6.0 0.00 0.00 0.00 58 1015.8
20260830180931 92 224 8.0 10.0 0.00 0.00 0.00 59 1015.9
20260830180430 93 154 0.0 3.0 0.00 0.00 0.00 58 1016.0
20260830175929 92 233 3.0 4.0 0.00 0.00 0.00 59 1016.1
20260830175423 94 175 3.0 7.0 0.00 0.00 0.00 58 1016.2
20260830174918 93 210 2.0 8.0 0.00 0.00 0.00 60 1016.4
20260830174414 93 101 2.0 4.0 0.00 0.00 0.00 59 1016.2
20260830173909 93 217 4.0 7.0 0.00 0.00 0.00 60 1016.4
20260830173404 91 229 3.0 4.0 0.00 0.00 0.00 64 1016.3
20260830172900 92 18 0.0 4.0 0.00 0.00 0.00 62 1016.4
20260830172356 92 221 4.0 12.0 0.00 0.00 0.00 62 1016.7
20260830171852 92 258 3.0 7.0 0.00 0.00 0.00 63 1016.7
20260830171347 92 246 3.0 9.0 0.00 0.00 0.00 63 1016.5
20260830170842 92 239 8.0 13.0 0.00 0.00 0.00 63 1016.9
20260830170341 92 157 2.0 5.0 0.00 0.00 0.00 65 1016.9
20260830165840 92 244 9.0 10.0 0.00 0.00 0.00 64 1016.9
20260830165336 92 312 0.0 8.0 0.00 0.00 0.00 65 1017.1
20260830164832 93 161 0.0 13.0 0.00 0.00 0.00 64 1017.3
20260830164328 91 180 1.0 7.0 0.00 0.00 0.00 66 1017.3
20260830163825 91 209 4.0 6.0 0.00 0.00 0.00 68 1017.2